Regional Weather Roundup
Issued by NWS Newport/Morehead, NC

Current Version | Previous Version | Graphics & Text | Print | Product List | Glossary Off
Versions: 1 2 3 4 5 6 7 8 9 10 11 12 13 14 15 16 17 18 19 20 21 22 23 24 25 26 27 28 29 30 31 32 33 34 35 36 37 38 39 40 41 42 43 44 45 46 47 48 49 50

000
ASUS42 KMHX 081913
RWRMHX
WEATHER ROUNDUP FOR EASTERN NORTH CAROLINA
NATIONAL WEATHER SERVICE NEWPORT/MOREHEAD CITY NC
200 PM EST MON FEB 08 2016

NOTE: "FAIR" INDICATES FEW OR NO CLOUDS BELOW 12,000 FEET
WITH NO SIGNIFICANT WEATHER AND/OR OBSTRUCTIONS TO VISIBILITY

NCZ015>017-031-032-045>047-102-103-082000-
NORTH COAST

CITY           SKY/WX    TMP DP  RH WIND       PRES   REMARKS
EDENTON        MOSUNNY   51  30  45 SW6       29.74F
ELIZABETH CITY MOSUNNY   48  32  53 VRB3      29.74S
KITTY HAWK     CLEAR     49  34  57 N5        29.74R
MANTEO         SUNNY     46  33  61 NE3       29.75S

$$

NCZ045>047-081-094-103-104-082000-
CENTRAL COAST

CITY           SKY/WX    TMP DP  RH WIND       PRES   REMARKS
FRISCO         SUNNY     48  34  58 VRB5      29.77S
SWANQUARTER      N/A     52 N/A N/A W10       29.74S

$$

NCZ095-097-098-100-101-082000-
SOUTHERN COAST

CITY           SKY/WX    TMP DP  RH WIND       PRES   REMARKS
BEAUFORT       SUNNY     50  35  56 SW13      29.77F
CEDAR ISLAND     N/A     54 N/A N/A S6        29.79S
JACKSONVILLE   SUNNY     54  34  46 SE16      29.75F
PINEY ISLAND   CLEAR    N/A N/A N/A W10       29.76S
WILMINGTON     SUNNY     55  32  41 S15       29.76F


$$

NCZ011>013-027>030-043-044-078>080-089-090>093-098-082000-
COASTAL PLAIN

CITY           SKY/WX    TMP DP  RH WIND       PRES   REMARKS
AHOSKIE        MOSUNNY   48  25  39 CALM      29.73F
CLINTON        SUNNY     56  32  41 S5        29.72F
ELIZABETHTOWN  SUNNY     56  29  35 S10G17    29.73F
GOLDSBORO      SUNNY     54  32  43 S9        29.71F
GREENVILLE     SUNNY     54  30  40 SW6       29.77S
HAVELOCK       SUNNY     55  30  38 W12       29.76F
KENANSVILLE      N/A     55  28  35 SW8       29.74F
KINSTON        SUNNY     54  30  40 SW8       29.75F
NEW BERN       SUNNY     55  30  38 VRB7G21   29.76F
RICHLANDS      SUNNY     55  32  41 S12G17    29.75F
ROCKY MOUNT    SUNNY     52  30  43 S8        29.73F
WASHINGTON     SUNNY     52  30  43 CALM      29.73F
WHITEVILLE     SUNNY     56  32  39 S13       29.74F

$$

AMZ130-135-150-152-154-156-158-170-250-252-270-ANZ085-086-088-633-658-670-082000-
MARINE OBSERVATIONS

STATION/POSITION TIME  TEMP    WIND        PRES    WAVE   SWELL
                       AIR SEA DIR/SP/G            HT/PER HT/PER
                 (UTC) (F)     (DEG/KT/KT) (MB)    (FT/S) (FT/S)
CHESAPEAKE LIGHT 1900   41      10/  6/  7 1007.7
64 E VA BEACH    1850   44 52  350/ 14/ 17 1005.9   17/13  16/13
DUCK             1800   42      20/ 10/ 11 1006.4
2 E DUCK         1811      45                N/A    10/13   8/13
OREGON INLET     1800   44 45  360/  7/ 11 1007.4
13E OREGON INLT  1900      47                N/A    17/17  15/17
HATTERAS CG      1800   45 50  280/  6/  9 1007.5
DIAMOND BUOY     1850   45 72  280/  6/ 10 1008.5   14/15  15/15
CAPE LOOKOUT     NOT AVBL
BEAUFORT LAB     1800   48 46  200/  9/ 12 1007.3
30 SE NEW RVR IN 1808   51 60              1007.7
30 SE NEW RVR IN 1825      61                N/A     6/15   5/15
27 SE WRIGHTSVLE 1808   53 60  220/  6/ 12 1008.4
5 SE WRIGHTSVLE  1808   48 52  190/ 12/ 16 1009.0
225 S CAPE HAT   1850   60 69  280/ 17/ 23   N/A    15/10  11/10
41 SE CHARLESTON 1850   57 65  240/ 19/ 25 1009.1    6/ 6   3/16

$$




USA.gov is the U.S. government's official web portal to all federal, state and local government web resources and services.